Flag for U.S.A. Weather past 2 weeks in West Palm Beach, Florida, U.S.A.

Now
78 °F

Passing clouds.


Feels Like: 81 °F
Forecast: 74 / 87 °F
Wind: 9 mph from West

Location: Palm Beach International Airport

Current Time: Sep 17, 2014 at 12:04:53 AM

Latest Report: Sep 16, 2014 at 10:53 PM


Visibility: 10 mi

Pressure: 30.01 "Hg

Humidity: 87%

Dew point: 74 °F

Location of West Palm BeachLocation

Historic Weather in West Palm Beach — Graph

°F

West Palm Beach temperature yesterday

Maximum temperature yesterday: 88 °F (at 11:04 AM)
Minimum temperature yesterday: 77 °F (at 1:53 AM)
Average temperature yesterday: 81 °F

Past Weeks' High & Low Weather Summary

 TemperatureHumidityPressure
High90 °F (Sep 5, 3:53 PM)100% (Sep 5, 4:53 AM)30.15 "Hg (Sep 5, 4:53 AM)
Low73 °F (Sep 14, 3:53 AM)53% (Sep 9, 12:53 PM)29.89 "Hg (Sep 12, 4:53 AM)
Average81 °F79%30.02 "Hg
* Reported Sep 1 9:53 PM — Sep 16 9:53 PM, West Palm Beach, Weather by CustomWeather, © 2014

Note: Actual official high and low records may vary slightly from our data, if they occured in-between our weather recording intervals... More about our weather records

Advertising

West Palm Beach weather history for previous 24 hours

 ConditionsComfort  
Time TempWeatherWind HumidityBarometerVisibility
9:53 PM
Sep 16
80 °FPassing clouds.3 mph81%29.99 "Hg10 mi
8:53 PM81 °FPartly cloudy.3 mph79%29.99 "Hg10 mi
7:53 PM82 °FBroken clouds.3 mph77%29.98 "Hg10 mi
6:53 PM82 °FBroken clouds.5 mph77%29.98 "Hg10 mi
5:53 PM82 °FBroken clouds.No wind77%29.97 "Hg10 mi
4:53 PM80 °FBroken clouds.5 mph81%29.98 "Hg10 mi
3:53 PM82 °FThunderstorms. Broken clouds.No wind74%29.99 "Hg10 mi
2:53 PM85 °FThunderstorms. Broken clouds.6 mph70%30.01 "Hg10 mi
1:53 PM88 °FBroken clouds.12 mph61%30.02 "Hg10 mi
12:53 PM85 °FPartly sunny.7 mph68%30.04 "Hg10 mi
11:53 AM85 °FPartly sunny.No wind65%30.06 "Hg10 mi
11:04 AM88 °FPartly sunny.6 mph65%30.06 "Hg10 mi
10:53 AM86 °FBroken clouds.No wind70%30.06 "Hg10 mi
9:53 AM84 °FPartly sunny.No wind74%30.07 "Hg10 mi
8:53 AM81 °FPartly sunny.6 mph85%30.07 "Hg10 mi
7:53 AM78 °FPassing clouds.No wind93%30.07 "Hg10 mi
6:53 AM77 °FPassing clouds.No wind94%30.06 "Hg10 mi
5:53 AM77 °FPassing clouds.5 mph94%30.07 "Hg10 mi
4:53 AM78 °FPassing clouds.No wind90%30.05 "Hg10 mi
3:53 AM77 °FPassing clouds.3 mph90%30.06 "Hg10 mi
2:53 AM77 °FPassing clouds.3 mph90%30.07 "Hg10 mi
1:53 AM77 °FPassing clouds.No wind90%30.09 "Hg10 mi
12:53 AM81 °FClear.No wind79%30.10 "Hg10 mi
Weather by CustomWeather, © 2014

See weather overviewHow to use our weather pages